sat.trackr.live / text

‹ back to catalog

NUSAT-40 (C SHOEMAKER)

NORAD 56943 · 2023-084M

PAYLOAD ACTIVE UNKNOWN

§ Identity

Operator
Country
ARGN
Launch date
2023-06-12
Launch site
AFWTR
Launch vehicle
Mass (kg)
RCS (m²)

External: N2YO · Heavens-Above · Gunter

§ Orbital elements

Epoch: 2026-05-25T04:45:16.259040Z

Period
91.63 min
Inclination
97.4847°
Eccentricity
0.0002263
Mean motion
15.71486269 rev/d
Perigee alt
353.1 km
Apogee alt
356.2 km
Semi-major
6,732.8 km
B*
6.8098e-4
RAAN
289.9631°
Arg perigee
304.2447°
Mean anomaly
55.8601°
Rev number
16,519

§ Raw data

NUSAT-40 (C SHOEMAKER)1 56943U 23084M   26145.19810485  .00087553  00000+0  68098-3 0  99992 56943  97.4847 289.9631 0002263 304.2447  55.8601 15.71486269165199

JSON: /api/v1/satellites/56943 · /tle

For live sub-satellite position, see the globe view (requires WebGL).

§ Visibility from observer

Set your observer location to see the next 7 days of passes ≥ 10°. The values pass through the URL so the page stays shareable.

No JS? Fill the form by hand. The geolocation button needs JavaScript.